INTELSAT 37E (IS-37E)

Last updated on Sat Aug 15 2026 00:03:01 GMT+0000 (Coordinated Universal Time)

1 42950U 17059A 26226.42179409 -.00000156 00000+0 00000+0 0 9997 2 42950 0.0153 92.3466 0002990 62.3756 301.9501 1.00272626 32651
UTC large
Height (km)
Speed (km/s)
/
Latitude / Longitude
Inclination (degrees)
Orbital Period (minutes)
Azimuth
Elevation
Range (km)
Doppler Factor

Next 0 passes for location: London (51.5072 / 0.1276)

No passes found over London.
INTELSAT 37E (IS-37E)